"Pseudo-MPEC" for OCA1465

Created 2023 Mar 27 10:22:11 UT using Find_Orb

Click here for an explanation of pseudo-MPECs

 
 Astrometry: 
     OCA1465*KC2023 03 22IS6%gUvRTBs-@_0^sH?x6T[4!_((6s+Ccd0r;M75ZWOE;m[]i6]XX74
     OCA1465 KC2023 03 22kv`sf3Y/PCtI^jvP0-//#1V819[!Q9l'T@ngyWv+A5vqeV[Lek)vX74
     OCA1465 KC2023 03 22GAa;WclJUsXOAFNyK^9`Z0%6kQU\[Q^Vmy3VE8erp;:pimhnQ'.fX74
     OCA1465 KC2023 03 2273V]e2?=WV0VDfU6,AstrometryN,GB#jiE_@MG`[=!OuTlR0Wc.X74
     OCA1465 KC2023 03 22CDOF+Ph.AW-ZRZ'8yUTp^OJ+(5bkC_/BiVM?x5:VBNb#0VL00wn`X74
     OCA1465 KC2023 03 22GSh\o3ZUvx,O=+d2;,`#cpW?wgPt6juredacted;i22_ElnuHl(QX74
     OCA1465 KC2023 03 22c3;O(!click6+?`^]*hW@2-cD?Cep?3!dZhY/p4EUS,qlC!4UuGbX74
     OCA1465 KC2023 03 22_E'aiF2bYNcwbQ0r!DqVRW'x!)20X3r=YSYHykd2sMc6Xs.YqY5IX74
     OCA1465 KC2023 03 227p!ly42GN)[b(4-lF[s/q+\YdSlSW]JX)#F_5n3?Nn[W\C#($QkOX74
     OCA1465 KC2023 03 22\'b![.TllX$u\K[KsnjG=XyI6here\'g'0#/L$DZ36LknH'?]S8+X74
     OCA1465 KC2023 03 22w:#rV.8aOsq-(weXxp^De,K^C$wOkQYc-`LyGUssUp(\NZR3$=s*X74
     OCA1465 KC2023 03 22=bSFdxwx;_^g8_w129A)u#1VUx4Mr)i'6iE4@CO%[quH)-aJ6]'HX74
     OCA1465 KC2023 03 22m7[dLTG;57^ZK%XT^m%VhM`vidflhs)i.G;bn1w_o2dND3kxiZK)474
     OCA1465 KC2023 03 220nnPt:?GCbVDWlBpQ8\;@3Sq1C+]oQtF4?M1[)U8G[LRM.mmh'!_474
     OCA1465 KC2023 03 228xEO$:[y`agYhy:r.-N0hbo.0P7=5);4Y@Onsi/:Iw9=IJw28QNa474
     OCA1465 KC2023 03 229^$iOAYY7mlWB:*fID5F8RJ:#GoS.WlG56vVoUGb!$_;bKd-`eyl474
     OCA1465 KC2023 03 225mI6ssi[*6(?L%OA4w]6!B+mp%-5$TJqW`DP*%Z@.yFgOgUL$k'G474
     OCA1465 KC2023 03 23QEn!JV6(0`ygC^IRX1R$R[E-aJShq*h?+luAu+[tM5rEforNuw,`474
     OCA1465 KC2023 03 23)18dVyKRnQ6\qA(lWRQ,%A$$oy!!9_2QIC*OI]w!s3Lo;esp=%O8474
     OCA1465 KC2023 03 23]S-6U.OnuZqdFg!wBO0nDL3cy]ZX3r;@%+O4ZCcn;'X;nZ9k/I_-474
     OCA1465 KC2023 03 23OLp(d+`Q#Uq):GqtjZBexplanation+;!!/5:Tx=n+mtUu^`65dE474
     OCA1465 KC2023 03 23aG`.r4R,W8G290!SeypY*=-9ml][(B?B*71]wBuDT4TUAs.7,8/:474
     OCA1465 KC2023 03 23+`+_A#ABH3O_0qZT%Hc4i6B[C4D7?Fw%_r(6%D98MxIx3WW[tE%e474

Station data:
(474) Mount John Observatory, Lake Tekapo  (S43.987385 E170.464960)  New
   Zealand.  Observers A. C. Gilmore, P. M. Kilmartin. Measurer P. M.
   Kilmartin. 1.0-m f/7.7 reflector + CCD.
(X74) Observatório Campo dos Amarais  (S21.661261 W50.849400)  Brazil.
   Observer L. S. Amaral. 0.3-m f/4 reflector + CCD.

Orbital elements:  OCA1465
   Perigee 2023 Mar 23.21795 +/- 0.000106 TT =  5:13:51 (JD 2460026.71795)
Epoch 2023 Mar 23.0 TT = JDT 2460026.5                           AutoNEOCP
q660622.811 +/- 283                 (J2000 equator)
H   27.81 G 0.15                    Peri.  270.63874 +/- 0.0033
                                    Node   304.82763 +/- 0.00016
e  33.7477951 +/- 0.0445            Incl.   88.70362 +/- 0.00009
18 of 23 observations 2023 Mar. 22-23 (31.7 hr); mean residual 0".63
Residuals in arcseconds: 
230322 X74( 7.2-  3.8-)   230322 X74  .43-  .71+    230322 474  .00   .03-    
230322 X74( 7.2-  4.8-)   230322 X74( 2.6+  .63-)   230323 474  .10+  .04+    
230322 X74( 6.2-  2.9-)   230322 X74  1.0+  2.4-    230323 474  .27+  .41+    
230322 X74  .59+  1.4+    230322 X74( 2.1+  3.3-)   230323 474  .65+  .08-    
230322 X74  .03-  .35+    230322 474  .50+  .16+    230323 474  .34-  .19-    
230322 X74  .03-  .73+    230322 474  .27-  .14+    230323 474  .71-  .17-    
230322 X74  .46-  .29-    230322 474  .03+  .23+    230323 474  .14+  .06+    
230322 X74  .91-  1.0-    230322 474  .14+  .19+    

Ephemerides (geocentric):
Date (UTC) HH   RA             Dec           delta  r     elong  mag " sig PA
---- --------  ------------   ------------  ------ ------ -----  --- --------
2023 03 27 10  20 17 20.999   -20 12 35.60  .01176 0.9926  64.2 22.7 6.98   2
2023 03 27 11  20 17 22.381   -20 00 35.42  .01186 0.9926  64.2 22.7 7.02   2
2023 03 27 12  20 17 23.743   -19 48 47.27  .01196 0.9926  64.2 22.7 7.06   2
2023 03 27 13  20 17 25.085   -19 37 10.86  .01206 0.9925  64.2 22.8 7.10   2
2023 03 27 14  20 17 26.409   -19 25 45.92  .01216 0.9925  64.2 22.8 7.13   2
2023 03 27 15  20 17 27.714   -19 14 32.17  .01226 0.9925  64.2 22.8 7.17   2
2023 03 27 16  20 17 29.001   -19 03 29.36  .01236 0.9924  64.2 22.8 7.20   2
2023 03 27 17  20 17 30.272   -18 52 37.24  .01246 0.9924  64.2 22.8 7.24   2
2023 03 27 18  20 17 31.526   -18 41 55.55  .01256 0.9924  64.2 22.8 7.27   2
2023 03 27 19  20 17 32.765   -18 31 24.07  .01266 0.9923  64.1 22.9 7.30   2
2023 03 27 20  20 17 33.987   -18 21 02.56  .01277 0.9923  64.1 22.9 7.34   2
2023 03 27 21  20 17 35.195   -18 10 50.80  .01287 0.9923  64.1 22.9 7.37   2
2023 03 27 22  20 17 36.389   -18 00 48.56  .01297 0.9923  64.1 22.9 7.40   2
2023 03 27 23  20 17 37.569   -17 50 55.64  .01307 0.9922  64.2 22.9 7.43   2
2023 03 28 00  20 17 38.735   -17 41 11.83  .01317 0.9922  64.2 22.9 7.47   2
2023 03 28 01  20 17 39.888   -17 31 36.93  .01327 0.9922  64.2 23.0 7.50   2
2023 03 28 02  20 17 41.028   -17 22 10.74  .01337 0.9921  64.2 23.0 7.53   2
2023 03 28 03  20 17 42.156   -17 12 53.08  .01348 0.9921  64.2 23.0 7.56   2
2023 03 28 04  20 17 43.273   -17 03 43.76  .01358 0.9921  64.2 23.0 7.59   2
2023 03 28 05  20 17 44.378   -16 54 42.60  .01368 0.9920  64.2 23.0 7.61   2
2023 03 28 06  20 17 45.471   -16 45 49.43  .01378 0.9920  64.2 23.0 7.64   2
2023 03 28 07  20 17 46.555   -16 37 04.07  .01388 0.9920  64.2 23.0 7.67   2
2023 03 28 08  20 17 47.627   -16 28 26.37  .01398 0.9919  64.2 23.1 7.70   2
2023 03 28 09  20 17 48.690   -16 19 56.16  .01409 0.9919  64.2 23.1 7.73   2
2023 03 28 10  20 17 49.743   -16 11 33.28  .01419 0.9919  64.2 23.1 7.75   2
2023 03 28 11  20 17 50.786   -16 03 17.59  .01429 0.9919  64.2 23.1 7.78   2
2023 03 28 12  20 17 51.820   -15 55 08.93  .01439 0.9918  64.2 23.1 7.81   2
2023 03 28 13  20 17 52.846   -15 47 07.16  .01450 0.9918  64.3 23.1 7.83   2
2023 03 28 14  20 17 53.863   -15 39 12.15  .01460 0.9918  64.3 23.2 7.86   2
2023 03 28 15  20 17 54.871   -15 31 23.74  .01470 0.9917  64.3 23.2 7.88   2
2023 03 28 16  20 17 55.872   -15 23 41.82  .01480 0.9917  64.3 23.2 7.91   2
2023 03 28 17  20 17 56.865   -15 16 06.25  .01491 0.9917  64.3 23.2 7.93   2
2023 03 28 18  20 17 57.850   -15 08 36.90  .01501 0.9917  64.3 23.2 7.96   2
2023 03 28 19  20 17 58.828   -15 01 13.66  .01511 0.9916  64.3 23.2 7.98   2
2023 03 28 20  20 17 59.799   -14 53 56.39  .01522 0.9916  64.3 23.2 8.00   2
2023 03 28 21  20 18 00.763   -14 46 44.99  .01532 0.9916  64.4 23.2 8.03   2
2023 03 28 22  20 18 01.721   -14 39 39.34  .01542 0.9915  64.4 23.3 8.05   2
2023 03 28 23  20 18 02.672   -14 32 39.32  .01552 0.9915  64.4 23.3 8.07   2
2023 03 29 00  20 18 03.617   -14 25 44.83  .01563 0.9915  64.4 23.3 8.09   2
2023 03 29 01  20 18 04.556   -14 18 55.77  .01573 0.9915  64.4 23.3 8.12   2
2023 03 29 02  20 18 05.489   -14 12 12.03  .01583 0.9914  64.4 23.3 8.14   2
2023 03 29 03  20 18 06.417   -14 05 33.51  .01594 0.9914  64.5 23.3 8.16   2
2023 03 29 04  20 18 07.340   -13 59 00.10  .01604 0.9914  64.5 23.3 8.18   2
2023 03 29 05  20 18 08.257   -13 52 31.73  .01614 0.9914  64.5 23.3 8.20   2
2023 03 29 06  20 18 09.169   -13 46 08.28  .01625 0.9913  64.5 23.4 8.22   2
2023 03 29 07  20 18 10.076   -13 39 49.68  .01635 0.9913  64.5 23.4 8.24   2
2023 03 29 08  20 18 10.979   -13 33 35.82  .01646 0.9913  64.5 23.4 8.26   2
2023 03 29 09  20 18 11.877   -13 27 26.63  .01656 0.9912  64.6 23.4 8.28   2